Location: Auckland
(36.8670°S, 174.7670°E)
Time: 08:40:56
(UTC+12:00)

NOSS 2-1 (E) - Pass Details

Date: 29 April 2019
Orbit: 471 x 1733 km, 63.3° (Epoch: 14 May)

Event Time Altitude Azimuth Distance (km) Brightness Sun altitude
Rises 20:18:51 0° 215° (SW) 4,778 8.6 -32.6°
Reaches altitude 10° 20:25:01 10° 187° (S) 3,511 7.5 -33.8°
Maximum altitude 20:28:03 12° 166° (SSE) 3,182 7.1 -34.4°
Enters shadow 20:28:09 12° 165° (SSE) 3,176 7.1 -34.4°
